Hillsboro, TX

8:03 AM CDT on September 19, 2017 (GMT -0500)
Hillsboro

Weather History for KINJ - January, 2013

Change the Weather History Date:

Tuesday, January 8, 2013

  Actual Average (KACT) Record (KACT)
Temperature  
Mean Temperature 47 °F -  
Max Temperature 50 °F 56 °F 82 °F (2006)
Min Temperature 44 °F 36 °F 13 °F (1976)
Degree Days  
Heating Degree Days 18    
Moisture  
Dew Point 42 °F    
Average Humidity 84    
Maximum Humidity 100    
Minimum Humidity 62    
Precipitation  
Precipitation 1.21 in - - ()
Sea Level Pressure  
Sea Level Pressure 30.02 in    
Wind  
Wind Speed 9 mph (NE)    
Max Wind Speed 21 mph    
Max Gust Speed 30 mph    
Visibility 6 miles    
Events Rain , Thunderstorm    
Averages and records for this station are not official NWS values.
T = Trace of Precipitation, MM = Missing Value Source: NWS Daily Summary

Daily Weather History Graph

Daily Weather History Graph

Search for Another Location

Airport or City:

Trip Planner

Search our weather history database for the weather conditions in past years. The results will help you decide how hot, cold, wet, or windy it might be!

Date:

Astronomy

Jan. 08, 2013 Rise Set
Actual Time 7:30 AM CST 5:40 PM CST
Civil Twilight 7:03 AM CST 6:07 PM CST
Nautical Twilight 6:33 AM CST 6:37 PM CST
Astronomical Twilight 6:03 AM CST 7:07 PM CST
Moon 4:05 AM CST (1/8) 2:43 PM CST (1/8)
Length of Visible Light 11h 04m
Length of Day
10h 10m
Waning Crescent, 13% of the Moon is Illuminated
Jan 8
Waning Crescent
Jan 11
New
Jan 18
First Quarter
Jan 26
Full
Feb 3
Last Quarter

Hourly Weather History & Observations

Time (CST) Temp. Windchill Dew Point Humidity Pressure Visibility Wind Dir Wind Speed Gust Speed Precip Events Conditions
12:15 AM 46.4 °F 41.9 °F 33.8 °F 62% 30.10 in 10.0 mi ESE 9.2 mph - N/A   Overcast
12:55 AM 46.4 °F 41.5 °F 33.8 °F 62% 30.09 in 10.0 mi East 10.4 mph - N/A   Overcast
1:15 AM 46.4 °F 41.9 °F 33.8 °F 62% 30.09 in 10.0 mi ESE 9.2 mph - N/A   Overcast
1:35 AM 46.4 °F 42.9 °F 33.8 °F 62% 30.09 in 10.0 mi East 6.9 mph - N/A   Mostly Cloudy
1:55 AM 46.4 °F 42.4 °F 35.6 °F 66% 30.08 in 10.0 mi ESE 8.1 mph - N/A   Overcast
2:15 AM 46.4 °F 42.4 °F 35.6 °F 66% 30.08 in 10.0 mi East 8.1 mph - N/A   Overcast
2:35 AM 46.4 °F 41.9 °F 35.6 °F 66% 30.08 in 10.0 mi East 9.2 mph - N/A   Overcast
2:55 AM 46.4 °F 42.4 °F 35.6 °F 66% 30.07 in 10.0 mi East 8.1 mph - N/A   Overcast
3:15 AM 46.4 °F 42.4 °F 35.6 °F 66% 30.07 in 10.0 mi East 8.1 mph - N/A   Overcast
3:35 AM 46.4 °F 42.4 °F 35.6 °F 66% 30.07 in 10.0 mi East 8.1 mph - N/A   Overcast
3:55 AM 46.4 °F 42.9 °F 35.6 °F 66% 30.07 in 10.0 mi East 6.9 mph - N/A   Overcast
4:15 AM 46.4 °F 42.9 °F 35.6 °F 66% 30.07 in 10.0 mi East 6.9 mph - N/A   Overcast
4:35 AM 46.4 °F 42.9 °F 35.6 °F 66% 30.06 in 10.0 mi East 6.9 mph - N/A   Overcast
4:55 AM 46.4 °F 41.9 °F 35.6 °F 66% 30.04 in 10.0 mi East 9.2 mph - N/A   Mostly Cloudy
5:15 AM 46.4 °F 41.9 °F 35.6 °F 66% 30.04 in 10.0 mi ENE 9.2 mph - N/A   Mostly Cloudy
5:35 AM 46.4 °F 41.5 °F 35.6 °F 66% 30.04 in 10.0 mi ENE 10.4 mph - N/A   Overcast
5:55 AM 46.4 °F 41.9 °F 35.6 °F 66% 30.04 in 10.0 mi East 9.2 mph - N/A   Overcast
6:15 AM 46.4 °F 41.5 °F 37.4 °F 71% 30.04 in 10.0 mi ENE 10.4 mph - N/A   Overcast
6:35 AM 46.4 °F 41.9 °F 37.4 °F 71% 30.04 in 10.0 mi ENE 9.2 mph - N/A   Overcast
6:55 AM 44.6 °F 39.7 °F 37.4 °F 76% 30.04 in 10.0 mi ENE 9.2 mph - N/A   Light Drizzle
7:35 AM 44.6 °F 39.7 °F 37.4 °F 76% 30.04 in 10.0 mi ENE 9.2 mph - N/A   Overcast
7:55 AM 44.6 °F 40.2 °F 39.2 °F 81% 30.07 in 10.0 mi ENE 8.1 mph - N/A   Overcast
8:15 AM 44.6 °F 39.7 °F 39.2 °F 81% 30.07 in 4.0 mi ENE 9.2 mph - N/A   Haze
8:35 AM 44.6 °F 40.7 °F 41.0 °F 87% 30.07 in 3.0 mi NE 6.9 mph - N/A   Overcast
8:55 AM 44.6 °F 39.7 °F 41.0 °F 87% 30.07 in 7.0 mi NE 9.2 mph - N/A Thunderstorm Drizzle
9:15 AM 44.6 °F 39.2 °F 41.0 °F 87% 30.06 in 5.0 mi East 10.4 mph - N/A   Overcast
9:35 AM 44.6 °F 39.2 °F 42.8 °F 93% 30.06 in 4.0 mi NE 10.4 mph - N/A   Overcast
9:55 AM 46.4 °F 42.4 °F 42.8 °F 87% 30.06 in 5.0 mi NNE 8.1 mph - 0.03 in Rain , Thunderstorm Light Thunderstorms and Rain
10:15 AM 46.4 °F 42.4 °F 42.8 °F 87% 30.07 in 5.0 mi NE 8.1 mph - N/A Rain Rain
10:35 AM 46.4 °F 44.3 °F 44.6 °F 93% 30.06 in 4.0 mi ENE 4.6 mph - 0.01 in Thunderstorm Drizzle
10:55 AM 46.4 °F 41.9 °F 44.6 °F 93% 30.04 in 1.8 mi NE 9.2 mph - 0.02 in   Light Drizzle
11:15 AM 46.4 °F 42.4 °F 44.6 °F 93% 30.03 in 2.5 mi NE 8.1 mph - N/A   Light Drizzle
11:35 AM 46.4 °F 42.9 °F 44.6 °F 93% 30.03 in 2.0 mi ENE 6.9 mph - N/A Rain Light Rain
11:55 AM 46.4 °F 42.4 °F 44.6 °F 93% 30.01 in 1.8 mi NE 8.1 mph - 0.01 in   Drizzle
12:35 PM 46.4 °F 43.5 °F 44.6 °F 93% 29.99 in 5.0 mi ENE 5.8 mph - N/A   Overcast
12:55 PM 46.4 °F 44.3 °F 44.6 °F 93% 29.99 in 2.0 mi NE 4.6 mph - N/A Rain Light Rain
1:15 PM 46.4 °F 43.5 °F 44.6 °F 93% 29.97 in 2.0 mi NNE 5.8 mph - N/A Rain Light Rain
1:55 PM 46.4 °F 42.4 °F 44.6 °F 93% 29.94 in 2.5 mi NNE 8.1 mph - N/A   Overcast
2:15 PM 46.4 °F 42.4 °F 44.6 °F 93% 29.95 in 2.0 mi NNE 8.1 mph - N/A   Overcast
2:35 PM 48.2 °F - 44.6 °F 87% 29.96 in 2.5 mi NNE 4.6 mph - N/A   Overcast
2:55 PM 48.2 °F - 46.4 °F 93% 29.96 in 3.0 mi NNE 4.6 mph - N/A   Overcast
3:15 PM 46.4 °F 42.9 °F 44.6 °F 93% 29.94 in 4.0 mi NNE 6.9 mph - N/A   Overcast
3:35 PM 48.2 °F - 46.4 °F 93% 29.94 in 3.0 mi North 6.9 mph - N/A   Overcast
3:55 PM 48.2 °F - 46.4 °F 93% 29.93 in 3.0 mi North 6.9 mph - N/A   Overcast
4:15 PM 48.2 °F - 46.4 °F 93% 29.93 in 1.5 mi NNE 9.2 mph - N/A Thunderstorm Overcast
4:35 PM 48.2 °F - 46.4 °F 93% 29.95 in 2.0 mi NNW 11.5 mph - 0.05 in Rain , Thunderstorm Thunderstorms and Rain
4:55 PM 48.2 °F - 46.4 °F 93% 29.95 in 5.0 mi NE 11.5 mph - 0.12 in Rain Rain
5:15 PM 48.2 °F - 46.4 °F 93% 29.96 in 7.0 mi NNE 6.9 mph - 0.01 in Rain Rain
5:35 PM 48.2 °F - 46.4 °F 93% 29.95 in 5.0 mi North 10.4 mph - 0.06 in Rain Rain
5:55 PM 48.2 °F - 46.4 °F 93% 29.95 in 7.0 mi North 10.4 mph - 0.07 in Rain Rain
6:15 PM 48.2 °F - 46.4 °F 93% 29.96 in 7.0 mi North 9.2 mph - N/A   Drizzle
6:35 PM 46.4 °F 43.5 °F 46.4 °F 100% 29.97 in 5.0 mi North 5.8 mph - 0.05 in Rain Rain
6:55 PM 46.4 °F 43.5 °F 46.4 °F 100% 29.98 in 4.0 mi North 5.8 mph - 0.10 in Rain Rain
7:15 PM 48.2 °F - 46.4 °F 93% 29.98 in 5.0 mi North 4.6 mph - 0.02 in Rain Heavy Rain
7:35 PM 48.2 °F - 46.4 °F 93% 29.99 in 5.0 mi NNE 4.6 mph - 0.05 in Rain Light Rain
7:55 PM 48.2 °F - 46.4 °F 93% 29.97 in 7.0 mi North 11.5 mph - 0.07 in Rain Rain
8:15 PM 48.2 °F - 46.4 °F 93% 29.96 in 10.0 mi North 11.5 mph - N/A   Overcast
8:35 PM 48.2 °F - 46.4 °F 93% 29.97 in 10.0 mi NNE 10.4 mph 18.4 mph 0.01 in   Drizzle
8:55 PM 48.2 °F - 46.4 °F 93% 29.98 in 5.0 mi NNW 12.7 mph 19.6 mph 0.06 in Rain , Thunderstorm Rain
9:15 PM 46.4 °F 40.1 °F 44.6 °F 93% 29.99 in 7.0 mi North 15.0 mph 20.7 mph N/A Rain , Thunderstorm Light Thunderstorms and Rain
9:35 PM 46.4 °F 39.2 °F 44.6 °F 93% 30.01 in 5.0 mi North 18.4 mph 21.9 mph 0.09 in Rain Heavy Rain
9:55 PM 46.4 °F 38.7 °F 44.6 °F 93% 30.01 in 7.0 mi NNW 20.7 mph 24.2 mph 0.13 in Rain , Thunderstorm Thunderstorms and Rain
10:15 PM 46.4 °F 39.2 °F 44.6 °F 93% 30.02 in 5.0 mi North 18.4 mph - 0.06 in Rain , Thunderstorm Heavy Thunderstorms and Rain
10:35 PM 46.4 °F 39.8 °F 44.6 °F 93% 30.03 in 5.0 mi North 16.1 mph 23.0 mph 0.12 in Rain , Thunderstorm Heavy Thunderstorms and Rain
11:15 PM 50.0 °F - 46.4 °F 87% 30.02 in 4.0 mi North 17.3 mph 29.9 mph 0.04 in Rain Light Rain
11:35 PM 50.0 °F - 48.2 °F 94% 30.03 in 3.0 mi North 16.1 mph 25.3 mph 0.10 in Rain , Thunderstorm Heavy Thunderstorms and Rain
11:55 PM 50.0 °F - 50.0 °F 100% 30.03 in 1.2 mi North 20.7 mph 25.3 mph 0.48 in Rain , Thunderstorm Heavy Thunderstorms and Rain